STARLINK-4678, 53780

Orbit data source: Space-Track

STARLINK-4678, 53780 is a payload satellite owned by SpaceX/Seattle (US) in LEO that was launched on Sun, 11 Sep 2022 UTC via an FALCON 9 launch vehicle from the Air Force Eastern Test Range (AFETR). Payload-class satellites include a variety of spacecraft equipped with specific instruments for various scientific and technological missions. These include communications satellites like Starlink; space stations such as the ISS; scientific satellites like the Hubble; Earth observation satellites from companies like Planet Labs, Umbra, and HawkEye 360; GPS; miniature CubeSats for education and research; and military/defense satellites.

Loading next visibility...
Identifier
53780, 2022-111H
Orbit
LEO
Country
Flag of USUS
Related business
Manufacturer
SpaceX/Seattle
Mission
Operational Commercial Communications
Bus & Motor
STARLINK, Unknown motor
Mass
305 kg wet, ~290 kg dry
Launch date (UTC)
2022-09-11 (4 years ago)
Launch vehicle
FALCON 9
Launch site
Air Force Eastern Test Range (AFETR)
Object type
Payload
Rocket body
Debris
Shape & HBR
Box + 1 Pan, 10.1 m
Radar Cross Section
13.562 m², Large (>1 m²)

Expand to show TLE details & history
Last TLE update: 16 hours ago

TLE from 16 hours ago
0 STARLINK-4678
1 53780U 22111H   26219.65237774  .00000136  00000-0  26667-4 0  9992
2 53780  53.1618 316.2165 0001244  79.7766 280.3365 15.08830007216486
Epoch: 2026-08-07T15:39Z
TLE epoch observation values (Epoch: 2026-08-07T15:39:25.436Z)
Latitude
-0.00009°
Longitude
125.18545°
Altitude
540.511 km
Speed
7.593 km/s
True Right ascension
21h 04m 51s
True Declination
0° 00' 00"
Sunlit
Object was in full shadow at epoch
Visualization orbit readout
Latitude
Unknown
Longitude
Unknown
Altitude
Unknown
Speed
Unknown
Apparent Right ascension
Unknown
Apparent Declination
Unknown
Sunlit
N/A
Visualization observer readout
Local Sidereal Time
21:49:27
Azimuth
Unknown
Elevation
Unknown
Doppler factor
Unknown
Orbital elements
Apogee altitude
540.888 km
Perigee altitude
539.167 km
Semi-major axis
6,918.165 km
Eccentricity
0.00012
Inclination
53.1618°
RAAN
316.2165°
Arg. of periapsis
79.7766°
True anomaly
280.32248°
Mean anomaly
280.3365°
Eccentric anomaly
280.32949°
Mean motion
3.77187 °/min
Orbital period
95.44 mins
BSTAR
0.000026667
Loading maneuver chart data...
Computing Atmospheric mass density...

Documentation

Showing up to 5 results
|